Location: Boda
(47.1872°N, 9.5454°E)
Time: 09:51:23
(UTC+00:00)

CZ-4B R/B - Pass Details

Date: 14 May 2021
Orbit: 703 x 802 km, 98.9° (Epoch: 16 June)

Event Time Altitude Azimuth Distance (km) Brightness Sun altitude
Rises 03:06:58 0° 10° (N) 3,182 7.5 -6.5°
Reaches altitude 10° 03:09:17 10° 6° (N) 2,270 6.6 -6.2°
Maximum altitude 03:14:07 52° 291° (WNW) 946 3.8 -5.6°
Drops below altitude 10° 03:19:03 10° 216° (SW) 2,316 5.4 -4.9°
Enters shadow 03:20:41 - 213° (SSW) 2,960 6.0 -4.6°
